Flag for Germany Weather past 2 weeks in Oldenburg, Lower Saxony, Germany

Now
79 °F

Scattered clouds.


Feels Like: 79 °F
Forecast: 58 / 63 °F
Wind: 10 mph from South

Location: Bremen Airport

Current Time: Jul 7, 2015 at 12:02:10 PM

Latest Report: Jul 7, 2015 at 11:20 AM


Visibility: N/A

Pressure: 29.86 "Hg

Humidity: 39%

Dew point: 52 °F

Location of OldenburgLocation

Historic Weather in Oldenburg — Graph

°F

Oldenburg temperature yesterday

Maximum temperature yesterday: 75 °F (at 3:50 PM)
Minimum temperature yesterday: 59 °F (at 3:50 AM)
Average temperature yesterday: 67 °F

Past Weeks' High & Low Weather Summary

 TemperatureHumidityPressure
High97 °F (Jul 4, 3:20 PM)100% (Jun 22, 10:20 PM)30.27 "Hg (Jun 22, 10:20 PM)
Low46 °F (Jun 28, 5:50 AM)30% (Jul 2, 3:20 PM)29.65 "Hg (Jun 22, 7:50 PM)
Average67 °F70%30.06 "Hg
* Reported Jun 22 10:20 AM — Jul 7 10:50 AM, Oldenburg, Weather by CustomWeather, © 2015

Note: Actual official high and low records may vary slightly from our data, if they occured in-between our weather recording intervals... More about our weather records

Advertising

Oldenburg weather history for previous 24 hours

 ConditionsComfort  
Time TempWeatherWind HumidityBarometerVisibility
10:50 AM
Tue, Jul 7
77 °FPassing clouds.9 mph39%29.89 "HgN/A
10:20 AM75 °FPassing clouds.7 mph47%29.89 "HgN/A
9:50 AM75 °FPassing clouds.6 mph50%29.89 "HgN/A
9:20 AM73 °FPassing clouds.7 mph57%29.92 "HgN/A
8:50 AM68 °FPassing clouds.5 mph69%29.92 "HgN/A
8:20 AM66 °FSunny.6 mph68%29.95 "Hg10 mi
7:50 AM63 °FSunny.5 mph77%29.95 "Hg10 mi
7:20 AM61 °FSunny.6 mph83%29.95 "Hg10 mi
6:50 AM59 °FPassing clouds.3 mph88%29.95 "HgN/A
6:20 AM57 °FSunny.5 mph94%29.98 "Hg10 mi
5:50 AM57 °FClear.5 mph94%29.98 "Hg10 mi
5:20 AM57 °FClear.5 mph94%29.98 "Hg10 mi
4:50 AM55 °FFog.5 mph100%29.98 "HgN/A
4:20 AM57 °FFog.2 mph94%30.01 "HgN/A
3:50 AM57 °FFog.3 mph94%30.01 "HgN/A
3:20 AM57 °FFog.3 mph94%30.01 "HgN/A
2:50 AM59 °FFog.1 mph94%30.04 "HgN/A
2:20 AM57 °FFog.1 mph94%30.04 "HgN/A
1:50 AM59 °FClear.No wind88%30.04 "Hg10 mi
1:20 AM59 °FClear.2 mph88%30.04 "Hg10 mi
12:50 AM61 °FClear.3 mph88%30.04 "Hg10 mi
12:20 AM59 °FClear.5 mph88%30.04 "Hg10 mi
11:50 PM
Mon, Jul 6
61 °FClear.3 mph83%30.07 "Hg10 mi
11:20 PM61 °FClear.5 mph83%30.07 "Hg10 mi
10:50 PM64 °FSunny.6 mph78%30.07 "Hg10 mi
10:20 PM66 °FSunny.7 mph73%30.07 "Hg10 mi
9:50 PM68 °FPassing clouds.6 mph64%30.07 "HgN/A
9:20 PM70 °FSunny.7 mph53%30.07 "Hg10 mi
8:50 PM70 °FSunny.9 mph53%30.07 "Hg10 mi
8:20 PM72 °FSunny.8 mph50%30.07 "Hg10 mi
7:50 PM73 °FPassing clouds.7 mph47%30.07 "HgN/A
7:20 PM72 °FPassing clouds.7 mph50%30.07 "HgN/A
6:50 PM72 °FSunny.8 mph50%30.07 "Hg10 mi
6:20 PM73 °FScattered clouds.10 mph47%30.09 "HgN/A
5:50 PM75 °FScattered clouds.8 mph44%30.09 "HgN/A
5:20 PM73 °FScattered clouds.8 mph47%30.09 "HgN/A
4:50 PM73 °FScattered clouds.15 mph41%30.09 "HgN/A
4:20 PM73 °FScattered clouds.16 mph41%30.09 "HgN/A
3:50 PM75 °FScattered clouds.14 mph41%30.09 "HgN/A
3:20 PM73 °FScattered clouds.14 mph44%30.09 "HgN/A
2:50 PM72 °FScattered clouds.14 mph44%30.09 "HgN/A
2:20 PM72 °FScattered clouds.16 mph50%30.12 "HgN/A
1:50 PM73 °FScattered clouds.16 mph44%30.09 "HgN/A
1:20 PM72 °FPartly sunny.17 mph47%30.12 "HgN/A
12:50 PM72 °FPartly sunny.15 mph50%30.12 "HgN/A
12:20 PM72 °FPartly sunny.17 mph47%30.12 "HgN/A
Weather by CustomWeather, © 2015

See weather overviewHow to use our weather pages